Eships Agamid — ZDHS9 — position and weather

sailwx.info

Track history (hours):
 
Tides and Currents Weather Stations Pressure Air Temp Water Temp Dewpoint Dewpoint Depression Visibility Wind Speed Wind Dir Waves Ship Positions

Eships Agamid

Last reported at 2014-Nov-25 14:34 UTC. Time now 2014-Nov-26 07:49 UTC.
Position N 48°16' W 004°51'.

Length 128 m; draft 6 m.

Type: Tanker. MMSI: 236355000.

Date/timePositionNaut miles runAvg speedWind from/ knotsBaromVisibWave heightAir tempDewpointWater temp
2014-Nov-25 14:34N 48°16' W 004°51'1312.8
2014-Nov-25 13:34N 48°21' W 004°33'4 4.5
2014-Nov-25 12:33N 48°23' W 004°27'0 0.0
2014-Nov-25 11:33N 48°23' W 004°27'0 0.0
2014-Nov-25 10:33N 48°23' W 004°27'0 0.0
2014-Nov-25 09:33N 48°23' W 004°27'0 0.0
2014-Nov-25 08:33N 48°23' W 004°27'0 0.0
2014-Nov-25 07:33N 48°23' W 004°27'0 0.0
2014-Nov-25 06:33N 48°23' W 004°27'0 0.0
2014-Nov-25 05:33N 48°23' W 004°27'0 0.0
2014-Nov-25 04:33N 48°23' W 004°27'0 0.0
2014-Nov-25 03:33N 48°23' W 004°27'0 0.0
2014-Nov-25 02:33N 48°23' W 004°27'0 0.0
2014-Nov-25 01:33N 48°23' W 004°27'0 0.0
2014-Nov-25 00:33N 48°23' W 004°27'0 0.0
2014-Nov-24 23:33N 48°23' W 004°27'0 0.0
2014-Nov-24 22:33N 48°23' W 004°27'0 0.0
2014-Nov-24 21:33N 48°23' W 004°27'0 0.0
2014-Nov-24 20:33N 48°23' W 004°27'0 0.0
2014-Nov-24 19:33N 48°23' W 004°27'0 0.0
2014-Nov-24 18:33N 48°23' W 004°27'0 0.0
2014-Nov-24 17:33N 48°23' W 004°27'0 0.0
2014-Nov-24 16:33N 48°23' W 004°27'0 0.0
2014-Nov-24 15:33N 48°23' W 004°27'2 1.8
2014-Nov-24 14:33N 48°22' W 004°29'1313.3
2014-Nov-24 13:33N 48°16' W 004°47'1313.2
2014-Nov-24 12:33N 48°10' W 005°05'20 9.8
2014-Nov-24 10:32N 47°51' W 004°56'  
2014-Nov-21 22:33N 47°08' W 002°26'3 1.5
2014-Nov-21 20:32N 47°05' W 002°26'58 9.2
2014-Nov-21 14:13N 47°40' W 003°34'710.8
2014-Nov-21 13:33N 47°42' W 003°23'3 2.5
2014-Nov-21 12:32N 47°44' W 003°21'0 0.0
2014-Nov-21 11:32N 47°44' W 003°21'0 0.0
2014-Nov-21 10:32N 47°44' W 003°21'0 0.0
2014-Nov-21 09:32N 47°44' W 003°21'0 0.0
2014-Nov-21 08:34N 47°44' W 003°21'0 0.0
2014-Nov-21 07:33N 47°44' W 003°21'0 0.0
2014-Nov-21 06:33N 47°44' W 003°21'0 0.0
2014-Nov-21 05:34N 47°44' W 003°21'0 0.0
2014-Nov-21 04:33N 47°44' W 003°21'0 0.0
2014-Nov-21 03:33N 47°44' W 003°21'0 0.0
2014-Nov-21 02:33N 47°44' W 003°21'0 0.0
2014-Nov-21 01:34N 47°44' W 003°21'0 0.0
2014-Nov-21 00:34N 47°44' W 003°21'0 0.0
2014-Nov-20 23:34N 47°44' W 003°21'0 0.0
2014-Nov-20 22:34N 47°44' W 003°21'0 0.0
2014-Nov-20 21:34N 47°44' W 003°21'0 0.0
2014-Nov-20 20:34N 47°44' W 003°21'0 0.0
2014-Nov-20 19:34N 47°44' W 003°21'0 0.0
2014-Nov-20 18:33N 47°44' W 003°21'0 0.0
2014-Nov-20 17:34N 47°44' W 003°21'0 0.0
2014-Nov-20 16:33N 47°44' W 003°21'0 0.0
2014-Nov-20 15:34N 47°44' W 003°21'0 0.0
2014-Nov-20 14:34N 47°44' W 003°21'0 0.0
2014-Nov-20 13:34N 47°44' W 003°21'5 4.7
2014-Nov-20 12:33N 47°40' W 003°26'55 6.4
2014-Nov-20 04:06N 47°08' W 002°21'610.5
2014-Nov-20 03:33N 47°13' W 002°16'61 1.2
2014-Nov-18 00:21N 47°39' W 003°37'8 9.9
2014-Nov-17 23:33N 47°40' W 003°26'5 4.8
2014-Nov-17 22:32N 47°44' W 003°21'0 0.0
2014-Nov-17 21:32N 47°44' W 003°21'0 0.0
2014-Nov-17 20:33N 47°44' W 003°21'0 0.0
2014-Nov-17 19:33N 47°44' W 003°21'0 0.0
2014-Nov-17 18:33N 47°44' W 003°21'0 0.0
2014-Nov-17 17:33N 47°44' W 003°21'0 0.0
2014-Nov-17 16:34N 47°44' W 003°21'0 0.0
2014-Nov-17 15:33N 47°44' W 003°21'0 0.0
2014-Nov-17 14:34N 47°44' W 003°21'0 0.0
2014-Nov-17 13:33N 47°44' W 003°21'0 0.0
2014-Nov-17 12:33N 47°44' W 003°21'0 0.0
2014-Nov-17 11:33N 47°44' W 003°21'0 0.0
2014-Nov-17 10:33N 47°44' W 003°21'0 0.0
2014-Nov-17 09:33N 47°44' W 003°21'0 0.0
2014-Nov-17 08:33N 47°44' W 003°21'0 0.0
2014-Nov-17 07:33N 47°44' W 003°21'0 0.0
2014-Nov-17 06:34N 47°44' W 003°21'0 0.0
2014-Nov-17 05:33N 47°44' W 003°21'0 0.0
2014-Nov-17 04:33N 47°44' W 003°21'0 0.0
2014-Nov-17 03:33N 47°44' W 003°21'0 0.0
2014-Nov-17 02:33N 47°44' W 003°21'0 0.0
2014-Nov-17 01:33N 47°44' W 003°21'0 0.0
2014-Nov-17 00:33N 47°44' W 003°21'0 0.0
2014-Nov-16 23:33N 47°44' W 003°21'1 0.8
2014-Nov-16 22:33N 47°43' W 003°22'  
Track history (hours):
 
Tides and Currents Weather Stations Pressure Air Temp Water Temp Dewpoint Dewpoint Depression Visibility Wind Speed Wind Dir Waves Ship Positions

Eships Agamid

Last reported at 2014-Nov-25 14:34 UTC. Time now 2014-Nov-26 07:49 UTC.
Position N 48°16' W 004°51'.

Length 128 m; draft 6 m.

Type: Tanker. MMSI: 236355000.

Date/timePositionNaut miles runAvg speedWind from/ knotsBaromVisibWave heightAir tempDewpointWater temp
2014-Nov-25 14:34N 48°16' W 004°51'1312.8
2014-Nov-25 13:34N 48°21' W 004°33'4 4.5
2014-Nov-25 12:33N 48°23' W 004°27'0 0.0
2014-Nov-25 11:33N 48°23' W 004°27'0 0.0
2014-Nov-25 10:33N 48°23' W 004°27'0 0.0
2014-Nov-25 09:33N 48°23' W 004°27'0 0.0
2014-Nov-25 08:33N 48°23' W 004°27'0 0.0
2014-Nov-25 07:33N 48°23' W 004°27'0 0.0
2014-Nov-25 06:33N 48°23' W 004°27'0 0.0
2014-Nov-25 05:33N 48°23' W 004°27'0 0.0
2014-Nov-25 04:33N 48°23' W 004°27'0 0.0
2014-Nov-25 03:33N 48°23' W 004°27'0 0.0
2014-Nov-25 02:33N 48°23' W 004°27'0 0.0
2014-Nov-25 01:33N 48°23' W 004°27'0 0.0
2014-Nov-25 00:33N 48°23' W 004°27'0 0.0
2014-Nov-24 23:33N 48°23' W 004°27'0 0.0
2014-Nov-24 22:33N 48°23' W 004°27'0 0.0
2014-Nov-24 21:33N 48°23' W 004°27'0 0.0
2014-Nov-24 20:33N 48°23' W 004°27'0 0.0
2014-Nov-24 19:33N 48°23' W 004°27'0 0.0
2014-Nov-24 18:33N 48°23' W 004°27'0 0.0
2014-Nov-24 17:33N 48°23' W 004°27'0 0.0
2014-Nov-24 16:33N 48°23' W 004°27'0 0.0
2014-Nov-24 15:33N 48°23' W 004°27'2 1.8
2014-Nov-24 14:33N 48°22' W 004°29'1313.3
2014-Nov-24 13:33N 48°16' W 004°47'1313.2
2014-Nov-24 12:33N 48°10' W 005°05'20 9.8
2014-Nov-24 10:32N 47°51' W 004°56'  
2014-Nov-21 22:33N 47°08' W 002°26'3 1.5
2014-Nov-21 20:32N 47°05' W 002°26'58 9.2
2014-Nov-21 14:13N 47°40' W 003°34'710.8
2014-Nov-21 13:33N 47°42' W 003°23'3 2.5
2014-Nov-21 12:32N 47°44' W 003°21'0 0.0
2014-Nov-21 11:32N 47°44' W 003°21'0 0.0
2014-Nov-21 10:32N 47°44' W 003°21'0 0.0
2014-Nov-21 09:32N 47°44' W 003°21'0 0.0
2014-Nov-21 08:34N 47°44' W 003°21'0 0.0
2014-Nov-21 07:33N 47°44' W 003°21'0 0.0
2014-Nov-21 06:33N 47°44' W 003°21'0 0.0
2014-Nov-21 05:34N 47°44' W 003°21'0 0.0
2014-Nov-21 04:33N 47°44' W 003°21'0 0.0
2014-Nov-21 03:33N 47°44' W 003°21'0 0.0
2014-Nov-21 02:33N 47°44' W 003°21'0 0.0
2014-Nov-21 01:34N 47°44' W 003°21'0 0.0
2014-Nov-21 00:34N 47°44' W 003°21'0 0.0
2014-Nov-20 23:34N 47°44' W 003°21'0 0.0
2014-Nov-20 22:34N 47°44' W 003°21'0 0.0
2014-Nov-20 21:34N 47°44' W 003°21'0 0.0
2014-Nov-20 20:34N 47°44' W 003°21'0 0.0
2014-Nov-20 19:34N 47°44' W 003°21'0 0.0
2014-Nov-20 18:33N 47°44' W 003°21'0 0.0
2014-Nov-20 17:34N 47°44' W 003°21'0 0.0
2014-Nov-20 16:33N 47°44' W 003°21'0 0.0
2014-Nov-20 15:34N 47°44' W 003°21'0 0.0
2014-Nov-20 14:34N 47°44' W 003°21'0 0.0
2014-Nov-20 13:34N 47°44' W 003°21'5 4.7
2014-Nov-20 12:33N 47°40' W 003°26'55 6.4
2014-Nov-20 04:06N 47°08' W 002°21'610.5
2014-Nov-20 03:33N 47°13' W 002°16'61 1.2
2014-Nov-18 00:21N 47°39' W 003°37'8 9.9
2014-Nov-17 23:33N 47°40' W 003°26'5 4.8
2014-Nov-17 22:32N 47°44' W 003°21'0 0.0
2014-Nov-17 21:32N 47°44' W 003°21'0 0.0
2014-Nov-17 20:33N 47°44' W 003°21'0 0.0
2014-Nov-17 19:33N 47°44' W 003°21'0 0.0
2014-Nov-17 18:33N 47°44' W 003°21'0 0.0
2014-Nov-17 17:33N 47°44' W 003°21'0 0.0
2014-Nov-17 16:34N 47°44' W 003°21'0 0.0
2014-Nov-17 15:33N 47°44' W 003°21'0 0.0
2014-Nov-17 14:34N 47°44' W 003°21'0 0.0
2014-Nov-17 13:33N 47°44' W 003°21'0 0.0
2014-Nov-17 12:33N 47°44' W 003°21'0 0.0
2014-Nov-17 11:33N 47°44' W 003°21'0 0.0
2014-Nov-17 10:33N 47°44' W 003°21'0 0.0
2014-Nov-17 09:33N 47°44' W 003°21'0 0.0
2014-Nov-17 08:33N 47°44' W 003°21'0 0.0
2014-Nov-17 07:33N 47°44' W 003°21'0 0.0
2014-Nov-17 06:34N 47°44' W 003°21'0 0.0
2014-Nov-17 05:33N 47°44' W 003°21'0 0.0
2014-Nov-17 04:33N 47°44' W 003°21'0 0.0
2014-Nov-17 03:33N 47°44' W 003°21'0 0.0
2014-Nov-17 02:33N 47°44' W 003°21'0 0.0
2014-Nov-17 01:33N 47°44' W 003°21'0 0.0
2014-Nov-17 00:33N 47°44' W 003°21'0 0.0
2014-Nov-16 23:33N 47°44' W 003°21'1 0.8
2014-Nov-16 22:33N 47°43' W 003°22'  

Dump ship's entire track history